Year,Month,Day,Hour,Minute,Value (Times are PST for temperature in C)
2018,07,05,14,56,14.90
2018,07,05,14,57,14.90
2018,07,05,14,58,14.90
2018,07,05,14,59,14.80
2018,07,05,15,00,14.80
2018,07,05,15,01,14.80
2018,07,05,15,02,14.80
2018,07,05,15,03,14.80
2018,07,05,15,04,14.90
2018,07,05,15,05,14.90
2018,07,05,15,06,14.90
2018,07,05,15,07,14.90
2018,07,05,15,08,14.90
2018,07,05,15,09,14.90
2018,07,05,15,10,15.00
2018,07,05,15,11,15.00
2018,07,05,15,12,15.10
2018,07,05,15,13,15.10
2018,07,05,15,14,15.20
2018,07,05,15,15,15.20
2018,07,05,15,16,15.20
2018,07,05,15,17,15.20
2018,07,05,15,18,15.20
2018,07,05,15,19,15.20
2018,07,05,15,20,15.20
2018,07,05,15,21,15.20
2018,07,05,15,22,15.20
2018,07,05,15,23,15.10
2018,07,05,15,24,15.10
2018,07,05,15,25,15.10
2018,07,05,15,26,15.10
2018,07,05,15,27,15.10
2018,07,05,15,28,15.20
2018,07,05,15,29,15.10
2018,07,05,15,30,15.20
2018,07,05,15,31,15.20
2018,07,05,15,32,15.20
2018,07,05,15,33,15.20
2018,07,05,15,34,15.20
2018,07,05,15,35,15.20
2018,07,05,15,36,15.20
2018,07,05,15,37,15.20
2018,07,05,15,38,15.20
2018,07,05,15,39,15.20
2018,07,05,15,40,15.20
2018,07,05,15,41,15.20
2018,07,05,15,42,15.20
2018,07,05,15,43,15.20
2018,07,05,15,44,15.20
2018,07,05,15,45,15.20
2018,07,05,15,46,15.20
2018,07,05,15,47,15.20
2018,07,05,15,48,15.20
2018,07,05,15,49,15.20
2018,07,05,15,50,15.20
2018,07,05,15,51,15.20
2018,07,05,15,52,15.20
2018,07,05,15,53,15.20
2018,07,05,15,54,15.20
2018,07,05,15,55,15.30
2018,07,05,15,56,15.30
2018,07,05,15,57,15.20
2018,07,05,15,58,15.20
2018,07,05,15,59,15.20
2018,07,05,16,00,15.20
2018,07,05,16,01,15.30
2018,07,05,16,02,15.30
2018,07,05,16,03,15.30
2018,07,05,16,04,15.30
2018,07,05,16,05,15.30
2018,07,05,16,06,15.30
2018,07,05,16,07,15.30
2018,07,05,16,08,15.40
2018,07,05,16,09,15.40
2018,07,05,16,10,15.40
2018,07,05,16,11,15.50
2018,07,05,16,12,15.50
2018,07,05,16,13,15.50
2018,07,05,16,14,15.50
2018,07,05,16,15,15.60
2018,07,05,16,16,15.60
2018,07,05,16,17,15.60
2018,07,05,16,18,15.50
2018,07,05,16,19,15.50
2018,07,05,16,20,15.50
2018,07,05,16,21,15.60
2018,07,05,16,22,15.60
2018,07,05,16,23,15.60
2018,07,05,16,24,15.60
2018,07,05,16,25,15.60
2018,07,05,16,26,15.60
2018,07,05,16,27,15.60
2018,07,05,16,28,15.70
2018,07,05,16,29,15.70
2018,07,05,16,30,15.70
2018,07,05,16,31,15.70
2018,07,05,16,32,15.70
2018,07,05,16,33,15.70
2018,07,05,16,34,15.80
2018,07,05,16,35,15.80
2018,07,05,16,36,15.80
2018,07,05,16,37,15.80
2018,07,05,16,38,15.80
2018,07,05,16,39,15.80
2018,07,05,16,40,15.70
2018,07,05,16,41,15.70
2018,07,05,16,42,15.70
2018,07,05,16,43,15.70
2018,07,05,16,44,15.70
2018,07,05,16,45,15.60
2018,07,05,16,46,15.60
2018,07,05,16,47,15.50
2018,07,05,16,48,15.50
2018,07,05,16,49,15.40
2018,07,05,16,50,15.40
2018,07,05,16,51,15.50
2018,07,05,16,52,15.50
2018,07,05,16,53,15.60
2018,07,05,16,54,15.60
2018,07,05,16,55,15.60
2018,07,05,16,56,15.70
2018,07,05,16,57,15.70
2018,07,05,16,58,15.70
2018,07,05,16,59,15.70
2018,07,05,17,00,15.70
2018,07,05,17,01,15.70
2018,07,05,17,02,15.70
2018,07,05,17,03,15.70
2018,07,05,17,04,15.70
2018,07,05,17,05,15.70
2018,07,05,17,06,15.70
2018,07,05,17,07,15.70
2018,07,05,17,08,15.80
2018,07,05,17,09,15.80
2018,07,05,17,10,15.80
2018,07,05,17,11,15.70
2018,07,05,17,12,15.70
2018,07,05,17,13,15.70
2018,07,05,17,14,15.70
2018,07,05,17,15,15.70
2018,07,05,17,16,15.70
2018,07,05,17,17,15.70
2018,07,05,17,18,15.70
2018,07,05,17,19,15.70
2018,07,05,17,20,15.70
2018,07,05,17,21,15.80
2018,07,05,17,22,15.80
2018,07,05,17,23,15.80
2018,07,05,17,24,15.80
2018,07,05,17,25,15.90
2018,07,05,17,26,15.90
2018,07,05,17,27,15.90
2018,07,05,17,28,15.90
2018,07,05,17,29,15.90
2018,07,05,17,30,16.00
2018,07,05,17,31,16.00
2018,07,05,17,32,16.10
2018,07,05,17,33,16.10
2018,07,05,17,34,16.10
2018,07,05,17,35,16.20
2018,07,05,17,36,16.30
2018,07,05,17,37,16.30
2018,07,05,17,38,16.40
2018,07,05,17,39,16.50
2018,07,05,17,40,16.60
2018,07,05,17,41,16.60
2018,07,05,17,42,16.70
2018,07,05,17,43,16.80
2018,07,05,17,44,16.80
2018,07,05,17,45,16.90
2018,07,05,17,46,17.00
2018,07,05,17,47,17.00
2018,07,05,17,48,17.00
2018,07,05,17,49,17.00
2018,07,05,17,50,17.00
2018,07,05,17,51,17.00
2018,07,05,17,52,17.00
2018,07,05,17,53,17.00
2018,07,05,17,54,17.00
2018,07,05,17,55,17.00
2018,07,05,17,56,17.10
2018,07,05,17,57,17.10
2018,07,05,17,58,17.20
2018,07,05,17,59,17.30
2018,07,05,18,00,17.30
2018,07,05,18,01,17.30
2018,07,05,18,02,17.30
2018,07,05,18,03,17.30
2018,07,05,18,04,17.30
2018,07,05,18,05,17.30
2018,07,05,18,06,17.30
2018,07,05,18,07,17.30
2018,07,05,18,08,17.20
2018,07,05,18,09,17.10
2018,07,05,18,10,17.00
2018,07,05,18,11,16.90
2018,07,05,18,12,16.80
2018,07,05,18,13,16.80
2018,07,05,18,14,16.80
2018,07,05,18,15,16.80
2018,07,05,18,16,16.80
2018,07,05,18,17,16.80
2018,07,05,18,18,16.80
2018,07,05,18,19,16.80
2018,07,05,18,20,16.80
2018,07,05,18,21,16.80
2018,07,05,18,22,16.90
2018,07,05,18,23,17.00
2018,07,05,18,24,17.00
2018,07,05,18,25,17.10
2018,07,05,18,26,17.20
2018,07,05,18,27,17.30
2018,07,05,18,28,17.30
2018,07,05,18,29,17.30
2018,07,05,18,30,17.30
2018,07,05,18,31,17.30
2018,07,05,18,32,17.30
2018,07,05,18,33,17.40
2018,07,05,18,34,17.40
2018,07,05,18,35,17.40
2018,07,05,18,36,17.40
2018,07,05,18,37,17.40
2018,07,05,18,38,17.40
2018,07,05,18,39,17.50
2018,07,05,18,40,17.50
2018,07,05,18,41,17.40
2018,07,05,18,42,17.40
2018,07,05,18,43,17.40
2018,07,05,18,44,17.40
2018,07,05,18,45,17.40
2018,07,05,18,46,17.40
2018,07,05,18,47,17.40
2018,07,05,18,48,17.50
2018,07,05,18,49,17.50
2018,07,05,18,50,17.60
2018,07,05,18,51,17.60
2018,07,05,18,52,17.60
2018,07,05,18,53,17.50
2018,07,05,18,54,17.50
2018,07,05,18,55,17.40
2018,07,05,18,56,17.40
2018,07,05,18,57,17.40
2018,07,05,18,58,17.40
2018,07,05,18,59,17.30
2018,07,05,19,00,17.30
2018,07,05,19,01,17.30
2018,07,05,19,02,17.40
2018,07,05,19,03,17.40
2018,07,05,19,04,17.40
2018,07,05,19,05,17.40
2018,07,05,19,06,17.30
2018,07,05,19,07,17.30
2018,07,05,19,08,17.30
2018,07,05,19,09,17.30
2018,07,05,19,10,17.20
2018,07,05,19,11,17.20
2018,07,05,19,12,17.20
2018,07,05,19,13,17.10
2018,07,05,19,14,17.10
2018,07,05,19,15,17.10
2018,07,05,19,16,17.10
2018,07,05,19,17,17.00
2018,07,05,19,18,17.00
2018,07,05,19,19,17.00
2018,07,05,19,20,16.90
2018,07,05,19,21,16.90
2018,07,05,19,22,16.80
2018,07,05,19,23,16.80
2018,07,05,19,24,16.70
2018,07,05,19,25,16.70
2018,07,05,19,26,16.70
2018,07,05,19,27,16.60
2018,07,05,19,28,16.60
2018,07,05,19,29,16.50
2018,07,05,19,30,16.50
2018,07,05,19,31,16.50
2018,07,05,19,32,16.40
2018,07,05,19,33,16.40
2018,07,05,19,34,16.50
2018,07,05,19,35,16.50
2018,07,05,19,36,16.50
2018,07,05,19,37,16.50
2018,07,05,19,38,16.50
2018,07,05,19,39,16.60
2018,07,05,19,40,16.60
2018,07,05,19,41,16.60
2018,07,05,19,42,16.70
2018,07,05,19,43,16.70
2018,07,05,19,44,16.80
2018,07,05,19,45,16.80
2018,07,05,19,46,16.80
2018,07,05,19,47,16.80
2018,07,05,19,48,16.80
2018,07,05,19,49,16.80
2018,07,05,19,50,16.80
2018,07,05,19,51,16.90
2018,07,05,19,52,16.90
2018,07,05,19,53,16.90
2018,07,05,19,54,16.90
2018,07,05,19,55,16.90
2018,07,05,19,56,17.00
2018,07,05,19,57,17.00
2018,07,05,19,58,16.90
2018,07,05,19,59,16.90
2018,07,05,20,00,16.80
2018,07,05,20,01,16.80
2018,07,05,20,02,16.80
2018,07,05,20,03,16.80
2018,07,05,20,04,16.80
2018,07,05,20,05,16.80
2018,07,05,20,06,16.80
2018,07,05,20,07,16.80
2018,07,05,20,08,16.70
2018,07,05,20,09,16.70
2018,07,05,20,10,16.70
2018,07,05,20,11,16.70
2018,07,05,20,12,16.70
2018,07,05,20,13,16.60
2018,07,05,20,14,16.60
2018,07,05,20,15,16.60
2018,07,05,20,16,16.50
2018,07,05,20,17,16.50
2018,07,05,20,18,16.50
2018,07,05,20,19,16.50
2018,07,05,20,20,16.40
2018,07,05,20,21,16.40
2018,07,05,20,22,16.40
2018,07,05,20,23,16.40
2018,07,05,20,24,16.40
2018,07,05,20,25,16.40
2018,07,05,20,26,16.40
2018,07,05,20,27,16.40
2018,07,05,20,28,16.40
2018,07,05,20,29,16.40
2018,07,05,20,30,16.40
2018,07,05,20,31,16.40
2018,07,05,20,32,16.40
